ONEWEB-0636, 56077

Orbit data source: Space-Track

ONEWEB-0636, 56077 is a payload satellite owned by One Web (NAA) (UK) in LEO that was launched on Sun, 26 Mar 2023 UTC via a LVM3 launch vehicle from the Sirharikota (SRI). Payload-class satellites include a variety of spacecraft equipped with specific instruments for various scientific and technological missions. These include communications satellites like Starlink; space stations such as the ISS; scientific satellites like the Hubble; Earth observation satellites from companies like Planet Labs, Umbra, and HawkEye 360; GPS; miniature CubeSats for education and research; and military/defense satellites.

Loading next visibility...
Identifier
56077, 2023-043AH
Orbit
LEO
Country
Flag of UKUK
Related business
Manufacturer
One Web
Mission
Operational Commercial Communications
Bus & Motor
ARROW, Unknown motor
Mass
148 kg wet, ~140 kg dry
Launch date (UTC)
2023-03-26 (2 years ago)
Launch vehicle
LVM3
Launch site
Sirharikota (SRI)
Object type
Payload
Rocket body
Debris
Shape & HBR
Trap Box + 2 Pan, 2.5 m
Radar Cross Section
2.032 m², Medium (>0.1 m² and < 1m²)

Expand to show TLE details & history
Last TLE update: 15 hours ago

TLE from 15 hours ago
0 ONEWEB-0636
1 56077U 23043AH  25250.20296228 -.00000010  00000-0 -59483-4 0  9998
2 56077  87.9040 315.6743 0002037  91.9439 268.1925 13.15549480119207
Epoch: 2025-09-07T04:52Z
TLE epoch observation values (Epoch: 2025-09-07T04:52:15.94Z)
Latitude
-0.00001°
Longitude
-103.91793°
Altitude
1,204.712 km
Speed
7.252 km/s
True Right ascension
21h 02m 41s
True Declination
0° 00' 00"
Sunlit
Object was in full shadow at epoch
Visualization orbit readout
Latitude
Unknown
Longitude
Unknown
Altitude
Unknown
Speed
Unknown
Apparent Right ascension
Unknown
Apparent Declination
Unknown
Sunlit
N/A
Visualization observer readout
Local Sidereal Time
11:46:10
Azimuth
Unknown
Elevation
Unknown
Doppler factor
Unknown
Orbital elements
Apogee altitude
1,200.423 km
Perigee altitude
1,197.336 km
Semi-major axis
7,577.016 km
Eccentricity
0.0002
Inclination
87.904°
RAAN
315.6743°
Arg. of periapsis
91.9439°
True anomaly
268.16917°
Mean anomaly
268.1925°
Eccentric anomaly
268.18083°
Mean motion
3.29076 °/min
Orbital period
109.4 mins
BSTAR
-0.000059483
Loading maneuver chart data...
Computing Atmospheric mass density...
Loading historical data...
Loading historical data...
Loading historical data...
Loading historical data...
Loading historical data...
Loading historical data...
Loading historical data...

Documentation

Showing up to 5 results
|